| time (UTC) | temp F | wind direction | speed knots | gust knots | rain 1hr in | rain 24hr in | rain mn in | humidity % | barometer mb |
| 20260504173526 | 71 | 156 | 1.7 | 9.6 | 0.00 | 0.00 | 0.00 | 39 | 1010.9 |
| 20260504173026 | 72 | 299 | 2.6 | 7.8 | 0.00 | 0.00 | 0.00 | 38 | 1011.0 |
| 20260504172525 | 71 | 181 | 3.5 | 7.8 | 0.00 | 0.00 | 0.00 | 39 | 1011.0 |
| 20260504172025 | 71 | 271 | 1.7 | 8.7 | 0.00 | 0.00 | 0.00 | 38 | 1011.0 |
| 20260504171524 | 71 | 183 | 3.5 | 8.7 | 0.00 | 0.00 | 0.00 | 38 | 1011.0 |
| 20260504171024 | 71 | 143 | 3.5 | 8.7 | 0.00 | 0.00 | 0.00 | 37 | 1010.9 |
| 20260504170523 | 71 | 237 | 2.6 | 8.7 | 0.00 | 0.00 | 0.00 | 36 | 1011.0 |
| 20260504151008 | 66 | 155 | 1.7 | 7.0 | 0.00 | 0.00 | 0.00 | 53 | 1012.3 |
| 20260504150505 | 65 | 147 | 1.7 | 7.0 | 0.00 | 0.00 | 0.00 | 54 | 1012.4 |
| 20260504141059 | 64 | 292 | 2.6 | 7.0 | 0.00 | 0.00 | 0.00 | 55 | 1012.5 |
| 20260504140558 | 64 | 297 | 2.6 | 7.0 | 0.00 | 0.00 | 0.00 | 56 | 1012.6 |
| 20260504130548 | 60 | 165 | 0.9 | 7.8 | 0.00 | 0.00 | 0.00 | 63 | 1012.9 |
| 20260504110525 | 54 | 162 | 0.0 | 1.7 | 0.00 | 0.00 | 0.00 | 80 | 1013.7 |
| 20260504100523 | 53 | 165 | 0.0 | 0.9 | 0.00 | 0.00 | 0.00 | 81 | 1013.6 |
| 20260504081518 | 53 | 222 | 0.9 | 4.3 | 0.00 | 0.00 | 0.00 | 84 | 1013.7 |
| 20260504081018 | 53 | 199 | 0.0 | 2.6 | 0.00 | 0.00 | 0.00 | 84 | 1013.7 |
| 20260504080517 | 53 | 167 | 0.9 | 3.5 | 0.00 | 0.00 | 0.00 | 84 | 1013.7 |
| 20260504050551 | 45 | 231 | 0.0 | 0.9 | 0.00 | 0.00 | 0.00 | 81 | 1013.8 |
| 20260504045549 | 45 | 231 | 0.0 | 0.0 | 0.00 | 0.00 | 0.00 | 81 | 1014.0 |
| 20260504045049 | 45 | 231 | 0.0 | 0.9 | 0.00 | 0.00 | 0.00 | 80 | 1014.0 |
| 20260504044549 | 45 | 231 | 0.0 | 0.9 | 0.00 | 0.00 | 0.00 | 80 | 1014.0 |
| 20260504044048 | 45 | 231 | 0.0 | 0.9 | 0.00 | 0.00 | 0.00 | 80 | 1014.0 |
| 20260504043551 | 45 | 231 | 0.0 | 0.9 | 0.00 | 0.00 | 0.00 | 80 | 1013.9 |
| 20260504043055 | 45 | 232 | 0.0 | 0.0 | 0.00 | 0.00 | 0.00 | 80 | 1013.8 |
| 20260504042547 | 44 | 231 | 0.0 | 1.7 | 0.00 | 0.00 | 0.00 | 80 | 1013.9 |
| 20260504042049 | 44 | 231 | 0.0 | 1.7 | 0.00 | 0.00 | 0.00 | 81 | 1013.8 |
| 20260504041544 | 44 | 236 | 0.0 | 0.0 | 0.00 | 0.00 | 0.00 | 81 | 1013.7 |
| 20260504041044 | 44 | 236 | 0.0 | 0.0 | 0.00 | 0.00 | 0.00 | 80 | 1013.7 |
| 20260504040543 | 44 | 236 | 0.0 | 0.0 | 0.00 | 0.00 | 0.00 | 80 | 1013.6 |
| 20260504040044 | 44 | 236 | 0.0 | 0.0 | 0.00 | 0.00 | 0.00 | 80 | 1013.6 |
| 20260504035542 | 44 | 236 | 0.0 | 0.0 | 0.00 | 0.00 | 0.00 | 79 | 1013.6 |
| 20260504035046 | 44 | 236 | 0.0 | 0.0 | 0.00 | 0.00 | 0.00 | 79 | 1013.6 |
| 20260504034551 | 44 | 236 | 0.0 | 0.0 | 0.00 | 0.00 | 0.00 | 79 | 1013.5 |
| 20260504034041 | 44 | 236 | 0.0 | 0.0 | 0.00 | 0.00 | 0.00 | 80 | 1013.4 |
| 20260504033543 | 44 | 236 | 0.0 | 0.0 | 0.00 | 0.00 | 0.00 | 80 | 1013.4 |
| 20260504033042 | 44 | 236 | 0.0 | 0.0 | 0.00 | 0.00 | 0.00 | 80 | 1013.4 |
| 20260504032541 | 44 | 236 | 0.0 | 0.0 | 0.00 | 0.00 | 0.00 | 79 | 1013.3 |
| 20260504032045 | 44 | 236 | 0.0 | 0.0 | 0.00 | 0.00 | 0.00 | 78 | 1013.2 |
| 20260504031542 | 44 | 236 | 0.0 | 0.0 | 0.00 | 0.00 | 0.00 | 78 | 1013.3 |
| 20260504031040 | 45 | 236 | 0.0 | 0.0 | 0.00 | 0.00 | 0.00 | 77 | 1013.2 |
| 20260504030540 | 45 | 236 | 0.0 | 0.0 | 0.00 | 0.00 | 0.00 | 77 | 1013.3 |
| 20260504030046 | 45 | 236 | 0.0 | 0.0 | 0.00 | 0.00 | 0.00 | 76 | 1013.3 |
| 20260504025539 | 46 | 236 | 0.0 | 0.0 | 0.00 | 0.00 | 0.00 | 75 | 1013.2 |
| 20260504025039 | 46 | 236 | 0.0 | 0.0 | 0.00 | 0.00 | 0.00 | 75 | 1013.3 |
| 20260504024539 | 46 | 236 | 0.0 | 0.9 | 0.00 | 0.00 | 0.00 | 74 | 1013.2 |
| 20260504024038 | 46 | 236 | 0.0 | 0.9 | 0.00 | 0.00 | 0.00 | 74 | 1013.2 |
| 20260504023538 | 47 | 236 | 0.0 | 0.0 | 0.00 | 0.00 | 0.00 | 73 | 1013.3 |
| 20260504023038 | 47 | 236 | 0.0 | 0.9 | 0.00 | 0.00 | 0.00 | 72 | 1013.2 |
| 20260504022538 | 48 | 236 | 0.0 | 0.9 | 0.00 | 0.00 | 0.00 | 72 | 1013.2 |
| 20260504022038 | 47 | 236 | 0.0 | 0.9 | 0.00 | 0.00 | 0.00 | 72 | 1013.3 |
| 20260504021537 | 47 | 236 | 0.0 | 0.9 | 0.00 | 0.00 | 0.00 | 73 | 1013.2 |
| 20260504021037 | 47 | 236 | 0.0 | 0.0 | 0.00 | 0.00 | 0.00 | 72 | 1013.2 |
| 20260504020537 | 47 | 236 | 0.0 | 0.9 | 0.00 | 0.00 | 0.00 | 71 | 1013.2 |
| 20260504020043 | 47 | 236 | 0.0 | 1.7 | 0.00 | 0.00 | 0.00 | 70 | 1013.2 |
| 20260504015536 | 47 | 236 | 0.0 | 0.9 | 0.00 | 0.00 | 0.00 | 72 | 1013.2 |
| 20260504015037 | 47 | 236 | 0.0 | 0.9 | 0.00 | 0.00 | 0.00 | 71 | 1013.1 |
| 20260504014543 | 46 | 236 | 0.0 | 0.9 | 0.00 | 0.00 | 0.00 | 71 | 1013.0 |
| 20260504014036 | 47 | 236 | 0.0 | 0.0 | 0.00 | 0.00 | 0.00 | 70 | 1013.0 |
| 20260504013536 | 47 | 236 | 0.0 | 0.0 | 0.00 | 0.00 | 0.00 | 69 | 1013.0 |
| 20260504013037 | 47 | 236 | 0.0 | 0.0 | 0.00 | 0.00 | 0.00 | 69 | 1013.0 |
| 20260504012536 | 47 | 236 | 0.0 | 0.0 | 0.00 | 0.00 | 0.00 | 69 | 1012.9 |
| 20260504012041 | 48 | 236 | 0.0 | 0.9 | 0.00 | 0.00 | 0.00 | 68 | 1012.8 |
| 20260504011536 | 48 | 236 | 0.0 | 0.9 | 0.00 | 0.00 | 0.00 | 68 | 1012.8 |
| 20260504011035 | 48 | 236 | 0.0 | 0.9 | 0.00 | 0.00 | 0.00 | 67 | 1012.7 |
| 20260504010535 | 48 | 236 | 0.0 | 0.9 | 0.00 | 0.00 | 0.00 | 66 | 1012.8 |
| 20260504010035 | 47 | 236 | 0.0 | 0.9 | 0.00 | 0.00 | 0.00 | 67 | 1012.8 |
| 20260504005535 | 47 | 236 | 0.0 | 0.0 | 0.00 | 0.00 | 0.00 | 68 | 1012.8 |
| 20260504005035 | 47 | 236 | 0.0 | 0.0 | 0.00 | 0.00 | 0.00 | 65 | 1012.7 |
| 20260504004535 | 48 | 236 | 0.0 | 0.0 | 0.00 | 0.00 | 0.00 | 63 | 1012.6 |
| 20260504004035 | 49 | 236 | 0.0 | 0.0 | 0.00 | 0.00 | 0.00 | 62 | 1012.6 |
| 20260504003534 | 49 | 236 | 0.0 | 0.0 | 0.00 | 0.00 | 0.00 | 61 | 1012.5 |
| 20260504003035 | 50 | 236 | 0.0 | 0.0 | 0.00 | 0.00 | 0.00 | 60 | 1012.5 |
| 20260504002534 | 50 | 236 | 0.0 | 0.0 | 0.00 | 0.00 | 0.00 | 58 | 1012.5 |
| 20260504002034 | 51 | 236 | 0.0 | 0.0 | 0.00 | 0.00 | 0.00 | 57 | 1012.4 |
| 20260504001537 | 52 | 236 | 0.0 | 0.0 | 0.00 | 0.00 | 0.00 | 55 | 1012.4 |
| 20260504001034 | 53 | 236 | 0.0 | 0.0 | 0.00 | 0.00 | 0.00 | 53 | 1012.4 |
| 20260504000533 | 54 | 236 | 0.0 | 0.0 | 0.00 | 0.00 | 0.00 | 51 | 1012.2 |
| 20260504000037 | 55 | 236 | 0.0 | 0.0 | 0.00 | 0.00 | 0.00 | 50 | 1012.2 |
| 20260503235533 | 56 | 236 | 0.0 | 0.9 | 0.00 | 0.00 | 0.00 | 48 | 1012.1 |
| 20260503235033 | 57 | 236 | 0.0 | 0.9 | 0.00 | 0.00 | 0.00 | 47 | 1012.0 |
| 20260503234533 | 57 | 236 | 0.0 | 1.7 | 0.00 | 0.00 | 0.00 | 45 | 1012.0 |
| 20260503234036 | 58 | 236 | 0.0 | 1.7 | 0.00 | 0.00 | 0.00 | 43 | 1011.9 |
| 20260503233535 | 58 | 236 | 0.0 | 1.7 | 0.00 | 0.00 | 0.00 | 43 | 1012.0 |
| 20260503233032 | 58 | 235 | 0.0 | 2.6 | 0.00 | 0.00 | 0.00 | 42 | 1012.0 |
| 20260503232532 | 59 | 247 | 0.0 | 5.2 | 0.00 | 0.00 | 0.00 | 42 | 1011.9 |
| 20260503232032 | 59 | 201 | 0.0 | 5.2 | 0.00 | 0.00 | 0.00 | 41 | 1011.9 |
| 20260503231533 | 59 | 298 | 0.0 | 3.5 | 0.00 | 0.00 | 0.00 | 41 | 1012.0 |
| 20260503231032 | 60 | 298 | 0.0 | 2.6 | 0.00 | 0.00 | 0.00 | 40 | 1012.0 |
| 20260503230531 | 60 | 208 | 0.0 | 3.5 | 0.00 | 0.00 | 0.00 | 41 | 1012.0 |
| 20260503230032 | 61 | 284 | 0.0 | 5.2 | 0.00 | 0.00 | 0.00 | 41 | 1012.0 |
| 20260503225533 | 61 | 270 | 0.9 | 5.2 | 0.00 | 0.00 | 0.00 | 39 | 1012.0 |
| 20260503225031 | 61 | 283 | 0.9 | 7.8 | 0.00 | 0.00 | 0.00 | 40 | 1012.0 |
| 20260503224530 | 61 | 259 | 1.7 | 7.8 | 0.00 | 0.00 | 0.00 | 40 | 1012.0 |
| 20260503224030 | 62 | 263 | 0.9 | 5.2 | 0.00 | 0.00 | 0.00 | 39 | 1012.0 |
| 20260503223530 | 62 | 255 | 0.0 | 7.0 | 0.00 | 0.00 | 0.00 | 40 | 1012.0 |
| 20260503223030 | 62 | 290 | 1.7 | 7.0 | 0.00 | 0.00 | 0.00 | 39 | 1012.0 |
| 20260503222531 | 61 | 260 | 1.7 | 5.2 | 0.00 | 0.00 | 0.00 | 39 | 1012.0 |
| 20260503222032 | 62 | 302 | 0.9 | 5.2 | 0.00 | 0.00 | 0.00 | 40 | 1012.0 |
| 20260503221531 | 61 | 130 | 0.9 | 4.3 | 0.00 | 0.00 | 0.00 | 40 | 1012.1 |
| 20260503221029 | 62 | 298 | 0.9 | 7.0 | 0.00 | 0.00 | 0.00 | 40 | 1012.1 |
| 20260503220528 | 62 | 300 | 0.9 | 7.0 | 0.00 | 0.00 | 0.00 | 40 | 1012.2 |
| 20260503220028 | 61 | 215 | 1.7 | 6.1 | 0.00 | 0.00 | 0.00 | 39 | 1012.1 |
| 20260503215526 | 61 | 271 | 1.7 | 6.1 | 0.00 | 0.00 | 0.00 | 40 | 1012.2 |
| 20260503215026 | 61 | 155 | 1.7 | 6.1 | 0.00 | 0.00 | 0.00 | 40 | 1012.0 |
| 20260503214538 | 62 | 297 | 0.0 | 6.1 | 0.00 | 0.00 | 0.00 | 41 | 1012.0 |
| 20260503214025 | 61 | 322 | 1.7 | 7.8 | 0.00 | 0.00 | 0.00 | 40 | 1012.1 |
| 20260503213525 | 61 | 297 | 2.6 | 7.8 | 0.00 | 0.00 | 0.00 | 40 | 1012.1 |
| 20260503213025 | 61 | 107 | 0.9 | 9.6 | 0.00 | 0.00 | 0.00 | 40 | 1012.2 |
| 20260503212526 | 61 | 250 | 2.6 | 9.6 | 0.00 | 0.00 | 0.00 | 39 | 1012.1 |
| 20260503212025 | 61 | 295 | 2.6 | 13.0 | 0.00 | 0.00 | 0.00 | 40 | 1012.1 |
| 20260503211525 | 61 | 133 | 3.5 | 13.0 | 0.00 | 0.00 | 0.00 | 41 | 1012.0 |
| 20260503211024 | 61 | 276 | 3.5 | 8.7 | 0.00 | 0.00 | 0.00 | 40 | 1012.1 |
| 20260503210524 | 61 | 121 | 2.6 | 7.8 | 0.00 | 0.00 | 0.00 | 40 | 1012.1 |
| 20260503210024 | 61 | 303 | 1.7 | 8.7 | 0.00 | 0.00 | 0.00 | 42 | 1012.0 |
| 20260503205524 | 61 | 273 | 3.5 | 8.7 | 0.00 | 0.00 | 0.00 | 40 | 1012.1 |
| 20260503205024 | 61 | 276 | 1.7 | 6.1 | 0.00 | 0.00 | 0.00 | 41 | 1012.1 |
| 20260503204523 | 61 | 166 | 2.6 | 7.0 | 0.00 | 0.00 | 0.00 | 41 | 1012.1 |
| 20260503204026 | 61 | 275 | 1.7 | 8.7 | 0.00 | 0.00 | 0.00 | 42 | 1012.1 |
| 20260503203526 | 61 | 276 | 1.7 | 8.7 | 0.00 | 0.00 | 0.00 | 42 | 1012.2 |
| 20260503203022 | 61 | 70 | 1.7 | 8.7 | 0.00 | 0.00 | 0.00 | 43 | 1012.3 |
| 20260503202522 | 60 | 264 | 2.6 | 11.3 | 0.00 | 0.00 | 0.00 | 42 | 1012.3 |
| 20260503202022 | 60 | 281 | 3.5 | 11.3 | 0.00 | 0.00 | 0.00 | 41 | 1012.5 |
| 20260503201521 | 61 | 304 | 1.7 | 7.8 | 0.00 | 0.00 | 0.00 | 42 | 1012.5 |
| 20260503201025 | 60 | 51 | 1.7 | 7.8 | 0.00 | 0.00 | 0.00 | 43 | 1012.6 |
| 20260503200521 | 60 | 54 | 1.7 | 10.4 | 0.00 | 0.00 | 0.00 | 42 | 1012.7 |
| 20260503200027 | 60 | 16 | 3.5 | 10.4 | 0.00 | 0.00 | 0.00 | 40 | 1012.6 |
| 20260503195519 | 60 | 260 | 2.6 | 8.7 | 0.00 | 0.00 | 0.00 | 42 | 1012.7 |
| 20260503195020 | 60 | 115 | 1.7 | 9.6 | 0.00 | 0.00 | 0.00 | 44 | 1012.8 |
| 20260503194519 | 60 | 245 | 2.6 | 9.6 | 0.00 | 0.00 | 0.00 | 42 | 1012.7 |
| 20260503194019 | 59 | 125 | 4.3 | 10.4 | 0.00 | 0.00 | 0.00 | 42 | 1012.7 |
| 20260503193519 | 59 | 167 | 3.5 | 10.4 | 0.00 | 0.00 | 0.00 | 42 | 1012.8 |
| 20260503193018 | 60 | 301 | 3.5 | 8.7 | 0.00 | 0.00 | 0.00 | 41 | 1013.0 |
| 20260503192518 | 59 | 243 | 1.7 | 9.6 | 0.00 | 0.00 | 0.00 | 44 | 1012.9 |
| 20260503192018 | 60 | 36 | 2.6 | 9.6 | 0.00 | 0.00 | 0.00 | 40 | 1013.0 |
| 20260503191519 | 60 | 277 | 0.9 | 13.0 | 0.00 | 0.00 | 0.00 | 44 | 1012.9 |
| 20260503191018 | 59 | 238 | 5.2 | 13.0 | 0.00 | 0.00 | 0.00 | 42 | 1012.8 |
| 20260503190516 | 59 | 262 | 3.5 | 11.3 | 0.00 | 0.00 | 0.00 | 40 | 1013.0 |
| 20260503190016 | 59 | 176 | 2.6 | 14.8 | 0.00 | 0.00 | 0.00 | 44 | 1013.0 |
| 20260503185516 | 59 | 293 | 3.5 | 11.3 | 0.00 | 0.00 | 0.00 | 42 | 1013.1 |
| 20260503185019 | 59 | 194 | 4.3 | 11.3 | 0.00 | 0.00 | 0.00 | 41 | 1013.1 |
| 20260503184516 | 58 | 75 | 3.5 | 15.6 | 0.00 | 0.00 | 0.00 | 41 | 1013.1 |
| 20260503184016 | 58 | 233 | 2.6 | 15.6 | 0.00 | 0.00 | 0.00 | 42 | 1013.2 |
| 20260503183516 | 58 | 81 | 2.6 | 10.4 | 0.00 | 0.00 | 0.00 | 41 | 1013.3 |
| 20260503183016 | 59 | 286 | 3.5 | 9.6 | 0.00 | 0.00 | 0.00 | 41 | 1013.3 |
| 20260503182515 | 59 | 338 | 2.6 | 9.6 | 0.00 | 0.00 | 0.00 | 43 | 1013.4 |
| 20260503182019 | 59 | 271 | 2.6 | 9.6 | 0.00 | 0.00 | 0.00 | 43 | 1013.4 |
| 20260503181513 | 59 | 245 | 1.7 | 8.7 | 0.00 | 0.00 | 0.00 | 45 | 1013.4 |
| 20260503181013 | 58 | 15 | 2.6 | 7.8 | 0.00 | 0.00 | 0.00 | 42 | 1013.4 |
| 20260503180512 | 58 | 243 | 3.5 | 12.2 | 0.00 | 0.00 | 0.00 | 42 | 1013.5 |
| 20260503180012 | 58 | 32 | 4.3 | 12.2 | 0.00 | 0.00 | 0.00 | 42 | 1013.5 |
| 20260503175510 | 57 | 285 | 3.5 | 7.8 | 0.00 | 0.00 | 0.00 | 42 | 1013.5 |
| 20260503175010 | 58 | 42 | 2.6 | 7.8 | 0.00 | 0.00 | 0.00 | 42 | 1013.5 |
| 20260503174515 | 57 | 251 | 2.6 | 9.6 | 0.00 | 0.00 | 0.00 | 43 | 1013.6 |
| 20260503174010 | 57 | 286 | 3.5 | 12.2 | 0.00 | 0.00 | 0.00 | 44 | 1013.7 |